| time (UTC) | temp F | wind direction | speed MPH | gust MPH | rain 1hr in | rain 24hr in | rain mn in | humidity % | barometer mb |
| 20260502190951 | 66 | 297 | 0.0 | 3.0 | 0.00 | 0.04 | 0.01 | 34 | 1023.1 |
| 20260502190440 | 67 | 168 | 0.0 | 1.0 | 0.00 | 0.04 | 0.01 | 34 | 1023.8 |
| 20260502185931 | 65 | 150 | 0.0 | 1.0 | 0.00 | 0.04 | 0.01 | 37 | 1023.4 |
| 20260502185639 | 64 | 215 | 0.0 | 2.0 | 0.00 | 0.04 | 0.01 | 37 | 1023.4 |
| 20260502184907 | 66 | 203 | 0.0 | 2.0 | 0.00 | 0.04 | 0.01 | 36 | 1023.4 |
| 20260502184401 | 65 | 216 | 0.0 | 2.0 | 0.00 | 0.04 | 0.01 | 36 | 1023.4 |
| 20260502183851 | 63 | 139 | 0.0 | 4.0 | 0.00 | 0.04 | 0.01 | 38 | 1023.8 |
| 20260502183339 | 65 | 213 | 2.0 | 7.0 | 0.00 | 0.04 | 0.01 | 39 | 1023.8 |
| 20260502182830 | 64 | 200 | 2.0 | 7.0 | 0.00 | 0.04 | 0.01 | 37 | 1023.8 |
| 20260502182320 | 63 | 174 | 0.0 | 11.0 | 0.00 | 0.04 | 0.01 | 40 | 1023.8 |
| 20260502181810 | 64 | 175 | 0.0 | 11.0 | 0.00 | 0.04 | 0.01 | 39 | 1023.8 |
| 20260502181300 | 64 | 244 | 0.0 | 4.0 | 0.00 | 0.04 | 0.01 | 41 | 1023.4 |
| 20260502181234 | 63 | 207 | 0.0 | 6.0 | 0.00 | 0.04 | 0.01 | 41 | 1023.8 |
| 20260502180242 | 63 | 202 | 1.0 | 6.0 | 0.00 | 0.04 | 0.01 | 42 | 1024.1 |
| 20260502163952 | 61 | 228 | 0.0 | 0.0 | 0.00 | 0.04 | 0.01 | 48 | 1024.4 |
| 20260502163441 | 61 | 224 | 0.0 | 1.0 | 0.00 | 0.04 | 0.01 | 48 | 1024.4 |
| 20260502162932 | 61 | 206 | 0.0 | 1.0 | 0.00 | 0.05 | 0.01 | 49 | 1024.4 |
| 20260502162408 | 60 | 223 | 0.0 | 1.0 | 0.00 | 0.05 | 0.01 | 51 | 1024.4 |
| 20260502161859 | 60 | 202 | 0.0 | 3.0 | 0.00 | 0.05 | 0.01 | 50 | 1024.4 |
| 20260502161350 | 60 | 219 | 2.0 | 3.0 | 0.00 | 0.06 | 0.01 | 51 | 1024.1 |
| 20260502160840 | 60 | 186 | 0.0 | 3.0 | 0.00 | 0.06 | 0.01 | 50 | 1024.1 |
| 20260502160604 | 59 | 263 | 0.0 | 3.0 | 0.00 | 0.07 | 0.01 | 51 | 1024.1 |
| 20260502151709 | 57 | 188 | 0.0 | 1.0 | 0.00 | 0.12 | 0.01 | 57 | 1024.4 |
| 20260502151208 | 56 | 182 | 0.0 | 1.0 | 0.00 | 0.12 | 0.01 | 58 | 1024.1 |
| 20260502150705 | 56 | 243 | 0.0 | 0.0 | 0.00 | 0.12 | 0.01 | 60 | 1024.1 |
| 20260502150156 | 56 | 244 | 0.0 | 2.0 | 0.00 | 0.12 | 0.01 | 61 | 1024.4 |
| 20260502130327 | 43 | 25 | 0.0 | 0.0 | 0.00 | 0.12 | 0.01 | 89 | 1023.4 |
| 20260502123757 | 39 | 26 | 0.0 | 0.0 | 0.00 | 0.12 | 0.01 | 92 | 1023.8 |
| 20260502123245 | 38 | 26 | 0.0 | 0.0 | 0.00 | 0.12 | 0.01 | 92 | 1023.4 |
| 20260502122735 | 38 | 26 | 0.0 | 0.0 | 0.00 | 0.12 | 0.01 | 92 | 1023.4 |
| 20260502122447 | 37 | 26 | 0.0 | 0.0 | 0.00 | 0.12 | 0.01 | 92 | 1023.4 |
| 20260502121707 | 37 | 26 | 0.0 | 0.0 | 0.00 | 0.12 | 0.01 | 92 | 1023.4 |
| 20260502121206 | 37 | 26 | 0.0 | 0.0 | 0.01 | 0.12 | 0.01 | 92 | 1023.1 |
| 20260502120707 | 37 | 26 | 0.0 | 0.0 | 0.01 | 0.12 | 0.01 | 92 | 1023.1 |
| 20260502120207 | 37 | 26 | 0.0 | 0.0 | 0.01 | 0.12 | 0.01 | 92 | 1022.8 |
| 20260502115706 | 37 | 26 | 0.0 | 0.0 | 0.01 | 0.12 | 0.01 | 92 | 1022.8 |
| 20260502115207 | 37 | 26 | 0.0 | 0.0 | 0.01 | 0.12 | 0.01 | 92 | 1022.8 |
| 20260502114659 | 37 | 26 | 0.0 | 0.0 | 0.01 | 0.13 | 0.01 | 92 | 1022.8 |
| 20260502114147 | 38 | 26 | 0.0 | 0.0 | 0.01 | 0.13 | 0.01 | 92 | 1023.1 |
| 20260502113636 | 38 | 26 | 0.0 | 0.0 | 0.01 | 0.13 | 0.01 | 92 | 1023.1 |
| 20260502113354 | 38 | 26 | 0.0 | 0.0 | 0.01 | 0.14 | 0.01 | 92 | 1022.8 |
| 20260502112607 | 38 | 26 | 0.0 | 0.0 | 0.01 | 0.14 | 0.01 | 92 | 1022.8 |
| 20260502112322 | 38 | 26 | 0.0 | 0.0 | 0.01 | 0.14 | 0.01 | 92 | 1022.8 |
| 20260502111813 | 38 | 26 | 0.0 | 0.0 | 0.00 | 0.13 | 0.00 | 92 | 1023.1 |
| 20260502111043 | 38 | 26 | 0.0 | 0.0 | 0.00 | 0.14 | 0.00 | 92 | 1023.1 |
| 20260502110535 | 38 | 26 | 0.0 | 0.0 | 0.00 | 0.14 | 0.00 | 92 | 1023.1 |
| 20260502110009 | 38 | 26 | 0.0 | 0.0 | 0.00 | 0.14 | 0.00 | 92 | 1022.8 |
| 20260502105459 | 38 | 26 | 0.0 | 0.0 | 0.00 | 0.14 | 0.00 | 92 | 1023.1 |
| 20260502104949 | 38 | 26 | 0.0 | 0.0 | 0.00 | 0.14 | 0.00 | 92 | 1023.1 |
| 20260502104658 | 38 | 26 | 0.0 | 0.0 | 0.00 | 0.14 | 0.00 | 92 | 1023.1 |
| 20260502103926 | 38 | 26 | 0.0 | 0.0 | 0.00 | 0.14 | 0.00 | 92 | 1023.1 |
| 20260502103416 | 38 | 26 | 0.0 | 0.0 | 0.00 | 0.14 | 0.00 | 92 | 1023.1 |
| 20260502102906 | 38 | 26 | 0.0 | 0.0 | 0.00 | 0.14 | 0.00 | 92 | 1023.1 |
| 20260502102407 | 38 | 26 | 0.0 | 0.0 | 0.00 | 0.14 | 0.00 | 92 | 1023.4 |
| 20260502102118 | 38 | 26 | 0.0 | 0.0 | 0.00 | 0.14 | 0.00 | 92 | 1023.1 |
| 20260502101602 | 38 | 26 | 0.0 | 0.0 | 0.00 | 0.14 | 0.00 | 91 | 1023.1 |
| 20260502101110 | 39 | 26 | 0.0 | 0.0 | 0.00 | 0.14 | 0.00 | 91 | 1023.4 |
| 20260502100340 | 39 | 26 | 0.0 | 0.0 | 0.00 | 0.14 | 0.00 | 91 | 1023.4 |
| 20260502091208 | 40 | 26 | 0.0 | 0.0 | 0.00 | 0.14 | 0.00 | 91 | 1023.1 |
| 20260502090706 | 40 | 26 | 0.0 | 0.0 | 0.00 | 0.14 | 0.00 | 91 | 1022.8 |
| 20260502090204 | 40 | 26 | 0.0 | 0.0 | 0.00 | 0.14 | 0.00 | 91 | 1022.8 |
| 20260502070902 | 40 | 26 | 0.0 | 0.0 | 0.00 | 0.14 | 0.00 | 89 | 1022.8 |
| 20260502070401 | 40 | 26 | 0.0 | 0.0 | 0.00 | 0.14 | 0.00 | 89 | 1023.1 |
| 20260502065853 | 40 | 26 | 0.0 | 0.0 | 0.00 | 0.14 | 0.00 | 89 | 1022.8 |
| 20260502065340 | 40 | 26 | 0.0 | 2.0 | 0.00 | 0.14 | 0.00 | 89 | 1022.8 |
| 20260502064828 | 40 | 26 | 1.0 | 2.0 | 0.00 | 0.14 | 0.00 | 89 | 1023.1 |
| 20260502064545 | 40 | 26 | 0.0 | 0.0 | 0.00 | 0.14 | 0.00 | 89 | 1023.4 |
| 20260502063823 | 40 | 26 | 0.0 | 0.0 | 0.00 | 0.14 | 0.00 | 89 | 1023.1 |
| 20260502063309 | 40 | 26 | 0.0 | 0.0 | 0.00 | 0.14 | 0.00 | 89 | 1022.8 |
| 20260502062759 | 40 | 26 | 0.0 | 0.0 | 0.00 | 0.14 | 0.00 | 89 | 1022.8 |
| 20260502062246 | 40 | 26 | 0.0 | 0.0 | 0.00 | 0.14 | 0.00 | 89 | 1022.8 |
| 20260502061734 | 40 | 26 | 0.0 | 0.0 | 0.00 | 0.14 | 0.00 | 89 | 1023.1 |
| 20260502061445 | 40 | 26 | 0.0 | 0.0 | 0.00 | 0.14 | 0.00 | 89 | 1023.1 |
| 20260502060708 | 40 | 26 | 0.0 | 0.0 | 0.00 | 0.14 | 0.00 | 89 | 1023.4 |
| 20260502060158 | 40 | 26 | 0.0 | 0.0 | 0.00 | 0.14 | 0.00 | 89 | 1022.8 |
| 20260502055644 | 40 | 26 | 0.0 | 0.0 | 0.00 | 0.14 | 0.14 | 89 | 1023.1 |
| 20260502055133 | 40 | 26 | 0.0 | 0.0 | 0.00 | 0.14 | 0.14 | 88 | 1023.1 |
| 20260502055101 | 40 | 26 | 0.0 | 0.0 | 0.00 | 0.14 | 0.14 | 88 | 1023.1 |
| 20260502054107 | 40 | 26 | 0.0 | 0.0 | 0.00 | 0.14 | 0.14 | 88 | 1023.1 |
| 20260502053832 | 40 | 26 | 0.0 | 0.0 | 0.00 | 0.14 | 0.14 | 88 | 1022.8 |
| 20260502053325 | 41 | 26 | 0.0 | 0.0 | 0.00 | 0.14 | 0.14 | 88 | 1022.8 |
| 20260502052545 | 41 | 26 | 0.0 | 0.0 | 0.00 | 0.14 | 0.14 | 87 | 1022.8 |
| 20260502052035 | 41 | 26 | 0.0 | 0.0 | 0.00 | 0.14 | 0.14 | 87 | 1022.8 |
| 20260502051521 | 41 | 26 | 0.0 | 0.0 | 0.00 | 0.14 | 0.14 | 87 | 1022.8 |
| 20260502051008 | 41 | 26 | 0.0 | 0.0 | 0.00 | 0.14 | 0.14 | 87 | 1022.8 |
| 20260502050507 | 42 | 26 | 0.0 | 0.0 | 0.00 | 0.14 | 0.14 | 87 | 1022.8 |
| 20260502050004 | 42 | 26 | 0.0 | 0.0 | 0.00 | 0.14 | 0.14 | 87 | 1023.1 |
| 20260502045450 | 42 | 26 | 0.0 | 0.0 | 0.00 | 0.14 | 0.14 | 87 | 1022.8 |
| 20260502044937 | 42 | 26 | 0.0 | 0.0 | 0.00 | 0.14 | 0.14 | 87 | 1022.8 |
| 20260502044426 | 42 | 26 | 0.0 | 0.0 | 0.00 | 0.14 | 0.14 | 87 | 1023.1 |
| 20260502043912 | 42 | 26 | 0.0 | 0.0 | 0.00 | 0.14 | 0.14 | 87 | 1023.1 |
| 20260502043400 | 42 | 26 | 0.0 | 0.0 | 0.00 | 0.14 | 0.14 | 88 | 1022.8 |
| 20260502042847 | 42 | 26 | 0.0 | 0.0 | 0.00 | 0.14 | 0.14 | 88 | 1022.8 |
| 20260502042336 | 42 | 26 | 0.0 | 0.0 | 0.00 | 0.14 | 0.14 | 88 | 1023.1 |
| 20260502042042 | 42 | 26 | 0.0 | 0.0 | 0.00 | 0.14 | 0.14 | 88 | 1023.1 |
| 20260502041535 | 42 | 26 | 0.0 | 0.0 | 0.00 | 0.14 | 0.14 | 88 | 1022.8 |
| 20260502040807 | 42 | 26 | 0.0 | 0.0 | 0.00 | 0.14 | 0.14 | 88 | 1023.4 |
| 20260502040300 | 42 | 26 | 0.0 | 0.0 | 0.00 | 0.14 | 0.14 | 87 | 1023.1 |
| 20260502040014 | 42 | 26 | 0.0 | 0.0 | 0.00 | 0.14 | 0.14 | 87 | 1023.1 |
| 20260502035233 | 42 | 26 | 0.0 | 0.0 | 0.00 | 0.14 | 0.14 | 87 | 1022.8 |
| 20260502034722 | 42 | 26 | 0.0 | 0.0 | 0.00 | 0.14 | 0.14 | 87 | 1023.1 |
| 20260502034208 | 42 | 26 | 0.0 | 0.0 | 0.00 | 0.14 | 0.14 | 86 | 1022.8 |
| 20260502033708 | 42 | 26 | 0.0 | 0.0 | 0.00 | 0.14 | 0.14 | 86 | 1022.8 |
| 20260502033208 | 43 | 26 | 0.0 | 0.0 | 0.00 | 0.14 | 0.14 | 85 | 1022.8 |
| 20260502032924 | 43 | 26 | 0.0 | 0.0 | 0.00 | 0.14 | 0.14 | 85 | 1023.1 |
| 20260502032151 | 43 | 26 | 0.0 | 0.0 | 0.00 | 0.14 | 0.14 | 85 | 1022.8 |
| 20260502031640 | 44 | 26 | 0.0 | 0.0 | 0.00 | 0.14 | 0.14 | 84 | 1022.8 |
| 20260502031130 | 44 | 26 | 0.0 | 0.0 | 0.00 | 0.14 | 0.14 | 84 | 1022.8 |
| 20260502030617 | 44 | 26 | 0.0 | 0.0 | 0.00 | 0.14 | 0.14 | 83 | 1022.8 |
| 20260502030105 | 45 | 26 | 0.0 | 0.0 | 0.00 | 0.14 | 0.14 | 83 | 1022.8 |
| 20260502025551 | 45 | 26 | 0.0 | 0.0 | 0.00 | 0.14 | 0.14 | 82 | 1022.8 |
| 20260502025034 | 45 | 26 | 0.0 | 0.0 | 0.00 | 0.14 | 0.14 | 82 | 1022.4 |
| 20260502024530 | 45 | 26 | 0.0 | 0.0 | 0.00 | 0.14 | 0.14 | 81 | 1022.1 |
| 20260502024008 | 46 | 26 | 0.0 | 0.0 | 0.00 | 0.14 | 0.14 | 81 | 1022.4 |
| 20260502023507 | 46 | 26 | 0.0 | 0.0 | 0.00 | 0.14 | 0.14 | 81 | 1022.1 |
| 20260502023000 | 46 | 26 | 0.0 | 0.0 | 0.00 | 0.14 | 0.14 | 81 | 1022.4 |
| 20260502022448 | 46 | 26 | 0.0 | 0.0 | 0.00 | 0.14 | 0.14 | 81 | 1022.1 |
| 20260502021933 | 46 | 26 | 0.0 | 0.0 | 0.00 | 0.14 | 0.14 | 80 | 1021.7 |
| 20260502021421 | 46 | 26 | 0.0 | 0.0 | 0.00 | 0.14 | 0.14 | 80 | 1021.7 |
| 20260502020908 | 46 | 26 | 0.0 | 0.0 | 0.00 | 0.14 | 0.14 | 79 | 1021.7 |
| 20260502020357 | 47 | 26 | 0.0 | 0.0 | 0.00 | 0.14 | 0.14 | 79 | 1021.7 |
| 20260502020108 | 47 | 26 | 0.0 | 0.0 | 0.00 | 0.14 | 0.14 | 78 | 1021.7 |
| 20260502015332 | 47 | 26 | 0.0 | 0.0 | 0.00 | 0.14 | 0.14 | 77 | 1021.7 |
| 20260502015035 | 48 | 26 | 0.0 | 0.0 | 0.00 | 0.14 | 0.14 | 77 | 1021.1 |
| 20260502014307 | 48 | 26 | 0.0 | 0.0 | 0.00 | 0.14 | 0.14 | 76 | 1021.4 |
| 20260502013754 | 48 | 26 | 0.0 | 0.0 | 0.00 | 0.14 | 0.14 | 75 | 1021.4 |
| 20260502013241 | 49 | 26 | 0.0 | 0.0 | 0.00 | 0.14 | 0.14 | 73 | 1021.4 |
| 20260502012730 | 49 | 26 | 0.0 | 0.0 | 0.00 | 0.14 | 0.14 | 72 | 1021.4 |
| 20260502012218 | 49 | 26 | 0.0 | 0.0 | 0.00 | 0.14 | 0.14 | 70 | 1021.4 |
| 20260502011926 | 49 | 26 | 0.0 | 0.0 | 0.00 | 0.14 | 0.14 | 68 | 1021.1 |
| 20260502011153 | 50 | 26 | 0.0 | 0.0 | 0.00 | 0.14 | 0.14 | 67 | 1021.4 |
| 20260502010639 | 50 | 28 | 0.0 | 0.0 | 0.00 | 0.14 | 0.14 | 67 | 1021.1 |
| 20260502010402 | 50 | 39 | 0.0 | 0.0 | 0.00 | 0.14 | 0.14 | 67 | 1021.1 |
| 20260502005634 | 50 | 39 | 0.0 | 0.0 | 0.00 | 0.14 | 0.14 | 67 | 1021.1 |
| 20260502005600 | 50 | 33 | 0.0 | 0.0 | 0.00 | 0.14 | 0.14 | 67 | 1021.1 |
| 20260502004558 | 50 | 65 | 0.0 | 0.0 | 0.00 | 0.14 | 0.14 | 67 | 1021.1 |
| 20260502004046 | 50 | 62 | 0.0 | 0.0 | 0.00 | 0.14 | 0.14 | 66 | 1020.7 |
| 20260502004031 | 50 | 62 | 0.0 | 4.0 | 0.00 | 0.14 | 0.14 | 65 | 1020.7 |
| 20260502003022 | 51 | 84 | 0.0 | 4.0 | 0.00 | 0.14 | 0.14 | 66 | 1020.7 |
| 20260502002728 | 51 | 59 | 0.0 | 2.0 | 0.00 | 0.14 | 0.14 | 66 | 1020.7 |
| 20260502001955 | 51 | 38 | 0.0 | 3.0 | 0.00 | 0.14 | 0.14 | 67 | 1020.7 |
| 20260502001442 | 51 | 62 | 0.0 | 0.0 | 0.00 | 0.14 | 0.14 | 69 | 1020.7 |
| 20260502000929 | 51 | 58 | 0.0 | 1.0 | 0.00 | 0.14 | 0.14 | 69 | 1020.7 |
| 20260502000425 | 51 | 95 | 0.0 | 1.0 | 0.00 | 0.14 | 0.14 | 71 | 1020.4 |
| 20260501235908 | 51 | 27 | 0.0 | 2.0 | 0.00 | 0.14 | 0.14 | 72 | 1020.4 |
| 20260501235406 | 50 | 33 | 0.0 | 3.0 | 0.00 | 0.14 | 0.14 | 71 | 1020.7 |
| 20260501235127 | 50 | 31 | 0.0 | 6.0 | 0.00 | 0.14 | 0.14 | 73 | 1020.7 |
| 20260501234351 | 50 | 30 | 0.0 | 6.0 | 0.00 | 0.14 | 0.14 | 74 | 1021.1 |
| 20260501233839 | 50 | 25 | 0.0 | 0.0 | 0.00 | 0.14 | 0.14 | 74 | 1020.7 |
| 20260501233324 | 50 | 23 | 0.0 | 3.0 | 0.00 | 0.14 | 0.14 | 74 | 1020.7 |
| 20260501233031 | 49 | 23 | 0.0 | 3.0 | 0.00 | 0.14 | 0.14 | 74 | 1020.7 |
| 20260501232753 | 50 | 25 | 0.0 | 6.0 | 0.00 | 0.14 | 0.14 | 76 | 1020.7 |
| 20260501231807 | 49 | 27 | 0.0 | 6.0 | 0.00 | 0.14 | 0.14 | 76 | 1020.7 |
| 20260501231307 | 49 | 27 | 0.0 | 6.0 | 0.00 | 0.14 | 0.14 | 78 | 1020.7 |
| 20260501230807 | 49 | 33 | 0.0 | 6.0 | 0.00 | 0.14 | 0.14 | 78 | 1020.4 |
| 20260501230259 | 49 | 28 | 0.0 | 8.0 | 0.00 | 0.14 | 0.14 | 79 | 1020.7 |
| 20260501230010 | 49 | 7 | 0.0 | 8.0 | 0.00 | 0.14 | 0.14 | 79 | 1020.7 |
| 20260501225455 | 48 | 12 | 3.0 | 7.0 | 0.00 | 0.14 | 0.14 | 80 | 1020.7 |
| 20260501224723 | 48 | 32 | 0.0 | 7.0 | 0.00 | 0.14 | 0.14 | 83 | 1020.4 |
| 20260501224223 | 48 | 1 | 3.0 | 7.0 | 0.00 | 0.14 | 0.14 | 83 | 1020.4 |
| 20260501223720 | 48 | 13 | 0.0 | 8.0 | 0.00 | 0.14 | 0.14 | 85 | 1020.4 |
| 20260501223650 | 48 | 22 | 0.0 | 8.0 | 0.00 | 0.14 | 0.14 | 86 | 1020.4 |
| 20260501222707 | 48 | 20 | 2.0 | 8.0 | 0.01 | 0.14 | 0.14 | 86 | 1020.0 |
| 20260501222158 | 47 | 11 | 0.0 | 9.0 | 0.01 | 0.14 | 0.14 | 86 | 1020.7 |
| 20260501221646 | 47 | 13 | 5.0 | 9.0 | 0.01 | 0.14 | 0.14 | 86 | 1020.4 |
| 20260501221134 | 47 | 345 | 3.0 | 9.0 | 0.02 | 0.14 | 0.14 | 87 | 1020.4 |
| 20260501220607 | 47 | 5 | 1.0 | 9.0 | 0.02 | 0.14 | 0.14 | 87 | 1020.7 |
| 20260501220055 | 47 | 15 | 0.0 | 10.0 | 0.03 | 0.14 | 0.14 | 88 | 1020.7 |
| 20260501215543 | 47 | 10 | 6.0 | 10.0 | 0.03 | 0.14 | 0.14 | 88 | 1020.4 |
| 20260501215032 | 46 | 351 | 6.0 | 10.0 | 0.03 | 0.14 | 0.14 | 89 | 1020.4 |
| 20260501214519 | 46 | 12 | 2.0 | 9.0 | 0.03 | 0.14 | 0.14 | 89 | 1020.4 |
| 20260501214006 | 46 | 5 | 0.0 | 11.0 | 0.03 | 0.14 | 0.14 | 89 | 1020.7 |
| 20260501213507 | 46 | 334 | 4.0 | 11.0 | 0.03 | 0.14 | 0.14 | 89 | 1021.1 |
| 20260501213006 | 46 | 351 | 3.0 | 7.0 | 0.03 | 0.14 | 0.14 | 89 | 1020.7 |
| 20260501212728 | 46 | 357 | 2.0 | 9.0 | 0.02 | 0.13 | 0.13 | 88 | 1021.1 |
| 20260501211953 | 46 | 22 | 3.0 | 10.0 | 0.02 | 0.13 | 0.13 | 88 | 1020.7 |
| 20260501211706 | 46 | 13 | 4.0 | 15.0 | 0.02 | 0.13 | 0.13 | 87 | 1020.7 |
| 20260501210931 | 46 | 358 | 2.0 | 15.0 | 0.01 | 0.12 | 0.12 | 86 | 1020.7 |
| 20260501210417 | 47 | 19 | 2.0 | 10.0 | 0.00 | 0.11 | 0.11 | 86 | 1020.7 |
| 20260501210134 | 47 | 348 | 7.0 | 11.0 | 0.00 | 0.11 | 0.11 | 85 | 1020.7 |
| 20260501205356 | 47 | 10 | 1.0 | 11.0 | 0.00 | 0.11 | 0.11 | 84 | 1020.7 |
| 20260501204843 | 47 | 14 | 0.0 | 11.0 | 0.00 | 0.11 | 0.11 | 84 | 1020.7 |
| 20260501204738 | 48 | 10 | 2.0 | 10.0 | 0.00 | 0.11 | 0.11 | 82 | 1020.7 |
| 20260501204406 | 48 | 348 | 0.0 | 10.0 | 0.00 | 0.11 | 0.11 | 83 | 1020.7 |
| 20260501203531 | 48 | 355 | 3.0 | 8.0 | 0.00 | 0.11 | 0.11 | 82 | 1020.7 |
| 20260501202757 | 48 | 6 | 4.0 | 11.0 | 0.00 | 0.11 | 0.11 | 81 | 1020.7 |
| 20260501202733 | 48 | 9 | 0.0 | 11.0 | 0.00 | 0.11 | 0.11 | 81 | 1020.7 |
| 20260501201735 | 48 | 15 | 0.0 | 11.0 | 0.00 | 0.11 | 0.11 | 80 | 1020.4 |
| 20260501201224 | 48 | 333 | 7.0 | 10.0 | 0.00 | 0.11 | 0.11 | 81 | 1020.7 |
| 20260501200708 | 48 | 9 | 5.0 | 10.0 | 0.00 | 0.11 | 0.11 | 82 | 1020.7 |
| 20260501200206 | 47 | 339 | 6.0 | 9.0 | 0.00 | 0.11 | 0.11 | 82 | 1020.7 |
| 20260501195704 | 48 | 11 | 0.0 | 13.0 | 0.00 | 0.11 | 0.11 | 82 | 1020.7 |
| 20260501195152 | 48 | 359 | 6.0 | 13.0 | 0.00 | 0.11 | 0.11 | 81 | 1020.4 |
| 20260501194639 | 48 | 4 | 3.0 | 9.0 | 0.00 | 0.11 | 0.11 | 80 | 1020.4 |
| 20260501194617 | 49 | 18 | 0.0 | 8.0 | 0.00 | 0.11 | 0.11 | 78 | 1020.4 |
| 20260501193617 | 50 | 8 | 1.0 | 8.0 | 0.00 | 0.11 | 0.11 | 74 | 1020.4 |
| 20260501193552 | 51 | 44 | 0.0 | 3.0 | 0.00 | 0.11 | 0.11 | 66 | 1020.0 |
| 20260501192555 | 50 | 119 | 0.0 | 3.0 | 0.00 | 0.11 | 0.11 | 62 | 1020.0 |
| 20260501192042 | 51 | 32 | 0.0 | 2.0 | 0.00 | 0.11 | 0.11 | 71 | 1020.0 |
| 20260501191752 | 51 | 106 | 0.0 | 4.0 | 0.00 | 0.11 | 0.11 | 63 | 1020.0 |